Location: Unspecified
(0.0000°N, 0.0000°E)
Time: 01:43:05
(UTC+00:00)

Tiros 1 despin weight - Pass Details

Date: 26 November 2019
Orbit: 594 x 642 km, 48.2° (Epoch: 10 December)

Event Time Altitude Azimuth Distance (km) Brightness Sun altitude
Rises 19:40:53 0° 306° (NW) 2,870 ? -26.4°
Reaches altitude 10° 19:43:18 10° 297° (WNW) 1,976 ? -26.9°
Maximum altitude 19:47:28 36° 231° (SW) 999 ? -27.9°
Enters shadow 19:50:44 15° 170° (S) 1,673 ? -28.6°
Drops below altitude 10° 19:51:43 10° 164° (SSE) 2,009 - -28.8°
Sets 19:54:12 0° 155° (SSE) 2,925 - -29.4°
